[[{"header":{"parameterUnit":"m.s-1","parameterCategory":1,"la1":30.2991,"la2":30.254,"lo1":-89.0895,"lo2":-89.0444,"dy":0.0017,"dx":0.0017,"nx":28,"ny":28,"refTime":"2025-07-26T21:00:00:Z","depth":0,"parameterNumber":2,"parameterNumberName":"U-component_of_WINDS"},"data":[0,0,0,0,0,0,0,0,0,0,0,0,0,0,0,0,0,0,0,0,0,0,0,0,0,0,0,0,0,0,0,0,0,0,0,0,0,0,0,0,0,0,0,0,0,0,0,0,0,0,0,0,0,0,0,0,0,0,0.2205,0.2206,0,0.2219,0.2219,0.2219,0.2206,0.2206,0.2205,0.2205,0.2217,0.2218,0.2219,0,0,0,0,0,0,0,0,0,0,0,0,0,0.2167,0.2167,0.2205,0.2206,0.2206,0.2219,0.2219,0.2219,0.2206,0.2206,0.2205,0.2204,0.2217,0.2218,0.2219,0,0,0,0,0,0,0,0,0,0,0,0,0,0.2182,0.2168,0.2205,0.2201,0.2201,0.2219,0.2219,0.2219,0.2206,0.2206,0.2205,0.2204,0.2217,0.2218,0.2219,0.2242,0,0,0.2223,0.2223,0,0,0,0,0,0,0,0,0.2181,0.2184,0.2201,0.2201,0.2201,0.221,0.221,0.2227,0.2207,0.2204,0.2205,0.2204,0.2215,0.2217,0.2221,0.2243,0.2244,0.2223,0.2224,0.2224,0.2225,0,0,0,0,0,0,0,0.218,0.2183,0.2211,0.2202,0.2201,0.2198,0.2199,0.2213,0.2214,0.2204,0.2203,0.2205,0.2215,0.222,0.2221,0.2244,0.2223,0.2224,0.2225,0.2225,0.2284,0.2285,0,0,0,0,0,0,0.218,0.2182,0.221,0.2211,0.2189,0.2199,0.22,0.2208,0.2214,0.2214,0.2206,0.2204,0.2218,0.222,0.2222,0.2248,0.2224,0.2225,0.2226,0.2283,0.2284,0.2285,0,0,0,0,0,0,0.2179,0.2182,0.221,0.2196,0.22,0.22,0.2209,0.2209,0.2213,0.2215,0.2215,0.221,0.2218,0.222,0.2237,0.2248,0.2226,0.2227,0.2282,0.2284,0.2285,0.2302,0,0,0,0,0,0,0.2178,0.2182,0.2191,0.2197,0.22,0.2226,0.221,0.2209,0.2215,0.2214,0.2219,0.2219,0.2217,0.2235,0.2238,0.225,0.2228,0.2281,0.2283,0.2284,0.23,0.2303,0.2306,0,0,0,0,0,0.2177,0.2196,0.2192,0.2195,0.2212,0.2226,0.2228,0.2225,0.2216,0.2225,0.2226,0.2219,0.2247,0.2237,0.224,0.2252,0.228,0.2282,0.2284,0.2299,0.2303,0.2306,0,0,0,0,0,0,0.2192,0.2196,0.2192,0.2214,0.222,0.2224,0.2235,0.223,0.2238,0.2236,0.2232,0.2234,0.2252,0.2254,0.2243,0.2274,0.2262,0.2265,0.2272,0.2276,0.2279,0.2277,0.2229,0,0,0,0,0,0.2198,0.2209,0.2213,0.2231,0.2234,0.2234,0.224,0.2238,0.2244,0.2246,0.2248,0.2254,0.2263,0.227,0.2279,0.2301,0.2301,0.231,0.2314,0.2316,0.2318,0.2328,0.2332,0.2291,0.2291,0.2291,0,0,0.221,0.2214,0.2221,0.2234,0.2239,0.225,0.2236,0.2249,0.2258,0.2248,0.2264,0.2266,0.2272,0.2291,0.2299,0.2293,0.2329,0.2318,0.232,0.2321,0.233,0.2334,0.2338,0.2292,0.2292,0.2292,0,0,0.2237,0.2242,0.2257,0.2262,0.2269,0.2268,0.2272,0.2277,0.2278,0.2294,0.2287,0.2296,0.2314,0.2318,0.2322,0.2351,0.2344,0.2354,0.2369,0.238,0.2383,0.2385,0.2395,0.2398,0.2356,0.2356,0.2356,0,0.2251,0.2269,0.2266,0.2279,0.2285,0.2277,0.2292,0.2296,0.2305,0.2309,0.2302,0.2323,0.2327,0.2346,0.2353,0.2357,0.236,0.2353,0.2383,0.2385,0.2388,0.2396,0.24,0.2357,0.2357,0.2357,0.2357,0,0.2285,0.2297,0.2309,0.2318,0.2324,0.2339,0.2337,0.2345,0.2341,0.2342,0.2358,0.2362,0.2371,0.2376,0.2373,0.2395,0.239,0.2383,0.2371,0.2393,0.2401,0.2404,0.2359,0.2358,0.2358,0.2358,0,0,0.2322,0.2329,0.2333,0.2337,0.2343,0.2352,0.2366,0.2375,0.2381,0.2388,0.2398,0.2413,0.2406,0.2411,0.2408,0.2417,0.2438,0.2409,0.2409,0.2413,0.2461,0.2465,0.2469,0.2434,0.2435,0.2436,0.246,0,0.2349,0.2372,0.237,0.2392,0.2402,0.2395,0.2406,0.2411,0.2412,0.242,0.2421,0.2431,0.2422,0.2424,0.2433,0.2434,0.2448,0.2432,0.2443,0.2443,0.2441,0.2474,0.2479,0.2502,0.2463,0.2464,0.2464,0,0.2383,0.2391,0.2414,0.2418,0.2422,0.2432,0.244,0.2449,0.2454,0.2454,0.2459,0.2455,0.2468,0.2456,0.2472,0.2462,0.2466,0.2467,0.2468,0.2468,0.2454,0.2473,0.2509,0.2512,0.2469,0.2469,0.2469,0,0.2406,0.2422,0.2438,0.2441,0.2447,0.2454,0.2457,0.2461,0.2467,0.2473,0.2477,0.2485,0.2489,0.2496,0.2493,0.2485,0.251,0.2498,0.2509,0.251,0.2514,0.2514,0.255,0.2519,0.2519,0.2519,0.2519,0,0.2435,0.2449,0.2448,0.2457,0.2472,0.247,0.2485,0.2486,0.249,0.2499,0.2494,0.2502,0.2499,0.2508,0.2506,0.252,0.2522,0.2521,0.2521,0.2521,0.2521,0.2523,0.2521,0.252,0.252,0.252,0.2519,0,0.2463,0.2463,0.2479,0.2483,0.2484,0.2495,0.2498,0.2507,0.2507,0.2518,0.2521,0.2521,0.253,0.2529,0.254,0.2539,0.2555,0.2553,0.2553,0.2552,0.2563,0.2562,0.2601,0.2605,0.2573,0.2573,0.2573,0,0.2481,0.2492,0.2497,0.2502,0.2506,0.2515,0.252,0.2518,0.2524,0.253,0.2538,0.2547,0.2554,0.2569,0.257,0.2577,0.2575,0.2588,0.2576,0.2576,0.2573,0.2572,0.2573,0.259,0.259,0.259,0.2591,0,0.2513,0.2512,0.252,0.2528,0.2535,0.2541,0.2547,0.2552,0.255,0.2557,0.2566,0.2572,0.2582,0.2591,0.2598,0.26,0.2595,0.2595,0.2597,0.2598,0.2597,0.2596,0.2558,0.2593,0.2593,0.2593,0.2593,0.2593,0.2536,0.2544,0.2549,0.2558,0.2562,0.2567,0.2575,0.2576,0.2584,0.2592,0.2591,0.2601,0.2605,0.2614,0.2617,0.2625,0.262,0.2625,0.2625,0.2626,0.2627,0.2597,0.2627,0.2627,0.2627,0.2626,0.2626,0,0.2566,0.2568,0.2577,0.2585,0.2592,0.2587,0.2593,0.2598,0.2608,0.2612,0.2619,0.263,0.2638,0.2639,0.2647,0.2653,0.265,0.2655,0.2654,0.2654,0.2632,0.2628,0.2656,0.2656,0.2656,0.2656,0.2656,0.2656,0.2582,0.2596,0.2596,0.2611,0.2614,0.2624,0.2628,0.2632,0.2636,0.2648,0.2654,0.2655,0.2658,0.2666,0.2673,0.2673,0.2676,0.2681,0.268,0.2659,0.2656,0.2653,0.2649,0.2682,0.2682,0.2701,0.2702,0.2702]},{"header":{"parameterUnit":"m.s-1","parameterCategory":1,"la1":30.2991,"la2":30.254,"lo1":-89.0895,"lo2":-89.0444,"dy":0.0017,"dx":0.0017,"nx":28,"ny":28,"refTime":"2025-07-26T21:00:00:Z","depth":0,"parameterNumber":3,"parameterNumberName":"V-component_of_WINDS"},"data":[0,0,0,0,0,0,0,0,0,0,0,0,0,0,0,0,0,0,0,0,0,0,0,0,0,0,0,0,0,0,0,0,0,0,0,0,0,0,0,0,0,0,0,0,0,0,0,0,0,0,0,0,0,0,0,0,0,0,-0.3546,-0.3546,0,-0.3552,-0.3552,-0.3552,-0.3586,-0.3587,-0.3588,-0.3588,-0.3594,-0.3594,-0.3593,0,0,0,0,0,0,0,0,0,0,0,0,0,-0.3565,-0.3564,-0.3546,-0.3546,-0.3546,-0.3552,-0.3552,-0.3552,-0.3586,-0.3587,-0.3588,-0.3589,-0.3595,-0.3594,-0.3593,0,0,0,0,0,0,0,0,0,0,0,0,0,-0.3562,-0.3564,-0.3546,-0.3564,-0.3565,-0.3552,-0.3552,-0.3552,-0.3586,-0.3587,-0.3588,-0.3589,-0.3595,-0.3594,-0.3593,-0.3563,0,0,-0.359,-0.359,0,0,0,0,0,0,0,0,-0.3562,-0.3561,-0.3561,-0.3562,-0.3564,-0.3569,-0.3561,-0.3556,-0.3585,-0.3578,-0.3588,-0.359,-0.3585,-0.3585,-0.3584,-0.3564,-0.3564,-0.359,-0.359,-0.3589,-0.3589,0,0,0,0,0,0,0,-0.3562,-0.3561,-0.3548,-0.3561,-0.3563,-0.3572,-0.3573,-0.356,-0.3575,-0.3579,-0.3581,-0.3581,-0.3586,-0.3584,-0.3584,-0.3564,-0.359,-0.359,-0.3589,-0.3589,-0.3522,-0.352,0,0,0,0,0,0,-0.356,-0.3561,-0.3548,-0.3549,-0.3566,-0.357,-0.3571,-0.3567,-0.3575,-0.3577,-0.358,-0.3583,-0.3585,-0.3585,-0.3584,-0.3551,-0.3589,-0.3589,-0.3588,-0.3523,-0.3521,-0.352,0,0,0,0,0,0,-0.356,-0.3558,-0.3548,-0.3556,-0.3555,-0.3569,-0.3563,-0.3566,-0.3564,-0.3576,-0.3579,-0.3576,-0.3586,-0.3586,-0.3569,-0.3551,-0.3588,-0.3587,-0.3524,-0.3522,-0.3521,-0.3483,0,0,0,0,0,0,-0.3561,-0.3558,-0.3547,-0.3555,-0.3554,-0.3532,-0.3562,-0.3565,-0.3563,-0.3566,-0.3572,-0.3575,-0.3587,-0.357,-0.3568,-0.3551,-0.3587,-0.3526,-0.3523,-0.3521,-0.3485,-0.348,-0.3475,0,0,0,0,0,-0.3561,-0.3535,-0.3546,-0.3544,-0.354,-0.353,-0.353,-0.3545,-0.3561,-0.355,-0.3558,-0.3574,-0.3554,-0.3568,-0.3566,-0.3548,-0.3527,-0.3524,-0.3521,-0.3488,-0.3481,-0.3475,0,0,0,0,0,0,-0.3524,-0.3537,-0.3548,-0.3525,-0.3526,-0.3536,-0.3522,-0.3537,-0.3534,-0.3537,-0.3556,-0.3557,-0.3537,-0.3541,-0.3557,-0.3521,-0.3543,-0.354,-0.3519,-0.3512,-0.3507,-0.3506,-0.3586,0,0,0,0,0,-0.3513,-0.3504,-0.3516,-0.3494,-0.3494,-0.3508,-0.3504,-0.3516,-0.3518,-0.3519,-0.3526,-0.3527,-0.3522,-0.3517,-0.3512,-0.3487,-0.3489,-0.3474,-0.3468,-0.3464,-0.3461,-0.3448,-0.3442,-0.3511,-0.3511,-0.3511,0,0,-0.349,-0.3496,-0.3489,-0.3486,-0.3489,-0.348,-0.3508,-0.3497,-0.349,-0.3517,-0.3502,-0.3507,-0.351,-0.3489,-0.348,-0.3492,-0.3442,-0.346,-0.3457,-0.3456,-0.3445,-0.3438,-0.3432,-0.3509,-0.3509,-0.3509,0,0,-0.3444,-0.3447,-0.343,-0.3432,-0.3436,-0.3446,-0.3442,-0.345,-0.3454,-0.3439,-0.346,-0.3453,-0.3442,-0.3444,-0.3443,-0.34,-0.3415,-0.3398,-0.3369,-0.3357,-0.3352,-0.3347,-0.3332,-0.3326,-0.3395,-0.3395,-0.3394,0,-0.3415,-0.3401,-0.3419,-0.3406,-0.3405,-0.343,-0.3413,-0.3414,-0.3416,-0.3415,-0.3428,-0.3416,-0.342,-0.34,-0.339,-0.3388,-0.3385,-0.3396,-0.3351,-0.3347,-0.3342,-0.3328,-0.3322,-0.3392,-0.3393,-0.3393,-0.3393,0,-0.3366,-0.3356,-0.3341,-0.3343,-0.3341,-0.3326,-0.3341,-0.3336,-0.3349,-0.3358,-0.3343,-0.3349,-0.3346,-0.3342,-0.3354,-0.3324,-0.3332,-0.3348,-0.3371,-0.3333,-0.332,-0.3315,-0.3389,-0.339,-0.3391,-0.3391,0,0,-0.3294,-0.3307,-0.3301,-0.3303,-0.331,-0.3303,-0.3291,-0.3288,-0.3284,-0.3285,-0.3275,-0.3266,-0.3282,-0.3281,-0.3294,-0.3283,-0.3249,-0.3301,-0.3301,-0.3291,-0.3217,-0.3205,-0.3198,-0.326,-0.3259,-0.3258,-0.3217,0,-0.3249,-0.3227,-0.3244,-0.3219,-0.3211,-0.3236,-0.3225,-0.3228,-0.3237,-0.3231,-0.3241,-0.3234,-0.3255,-0.3255,-0.3246,-0.3255,-0.3234,-0.3258,-0.3251,-0.325,-0.3248,-0.3191,-0.3177,-0.3138,-0.3212,-0.3211,-0.3211,0,-0.3194,-0.3193,-0.3168,-0.3178,-0.3175,-0.3165,-0.3165,-0.316,-0.3165,-0.3172,-0.3172,-0.3188,-0.3177,-0.32,-0.3185,-0.3201,-0.32,-0.3204,-0.3203,-0.3202,-0.3227,-0.3188,-0.3126,-0.312,-0.3203,-0.3203,-0.3204,0,-0.3144,-0.3137,-0.3121,-0.3122,-0.3134,-0.3126,-0.313,-0.3137,-0.3135,-0.3135,-0.3135,-0.3133,-0.3133,-0.3132,-0.3147,-0.3163,-0.3131,-0.3155,-0.3136,-0.3136,-0.3127,-0.3127,-0.3063,-0.3127,-0.3127,-0.3127,-0.3127,0,-0.3092,-0.3075,-0.3099,-0.3089,-0.3072,-0.3092,-0.3074,-0.3082,-0.3087,-0.308,-0.3102,-0.3094,-0.3116,-0.3111,-0.3123,-0.3109,-0.3109,-0.3114,-0.3117,-0.3112,-0.3111,-0.311,-0.3113,-0.3126,-0.3126,-0.3126,-0.3127,0,-0.3033,-0.3048,-0.3032,-0.3045,-0.3048,-0.3035,-0.3046,-0.3038,-0.3049,-0.3039,-0.3038,-0.3055,-0.305,-0.3066,-0.3064,-0.3072,-0.3052,-0.306,-0.305,-0.3052,-0.3032,-0.3034,-0.2965,-0.2957,-0.3026,-0.3025,-0.3025,0,-0.2998,-0.2986,-0.2998,-0.2995,-0.2999,-0.2993,-0.2992,-0.3011,-0.3009,-0.3015,-0.3006,-0.3004,-0.3002,-0.2994,-0.3006,-0.3005,-0.3013,-0.2989,-0.3013,-0.3008,-0.3013,-0.3013,-0.3012,-0.2984,-0.2983,-0.2982,-0.2982,0,-0.2935,-0.2944,-0.2941,-0.2941,-0.2939,-0.294,-0.2942,-0.2939,-0.296,-0.2956,-0.2952,-0.2952,-0.295,-0.2948,-0.2949,-0.2955,-0.2972,-0.2975,-0.297,-0.2964,-0.2958,-0.2961,-0.3036,-0.2976,-0.2976,-0.2977,-0.2977,-0.2977,-0.2887,-0.2878,-0.2886,-0.2882,-0.2886,-0.2889,-0.2882,-0.2892,-0.2889,-0.289,-0.2902,-0.2896,-0.2903,-0.2907,-0.2911,-0.2907,-0.2918,-0.2911,-0.291,-0.2908,-0.2904,-0.296,-0.2907,-0.2907,-0.2908,-0.2908,-0.2908,0,-0.2825,-0.2832,-0.2828,-0.2832,-0.2829,-0.2847,-0.2851,-0.2848,-0.2842,-0.2847,-0.2846,-0.2842,-0.284,-0.2853,-0.2853,-0.2847,-0.2855,-0.2846,-0.2847,-0.2848,-0.2894,-0.2898,-0.284,-0.284,-0.284,-0.284,-0.284,-0.284,-0.2793,-0.2779,-0.2788,-0.2777,-0.2784,-0.2778,-0.2779,-0.2782,-0.2787,-0.2781,-0.278,-0.2788,-0.2797,-0.2798,-0.2797,-0.2801,-0.28,-0.2789,-0.2795,-0.2838,-0.2844,-0.2851,-0.2854,-0.2788,-0.2788,-0.2749,-0.2749,-0.2748]}]]